1500559200.49,11914,23.56,74282.8,19.85,7.01,7.59,0,*49
1500559201.73,11915,23.56,74282.8,19.87,7.19,7.69,0,*40
1500559202.96,11916,23.56,74284.0,19.85,7.55,7.95,0,*4A
1500559204.17,11917,23.56,74284.5,19.87,7.15,7.59,0,*4D
1500559205.4,11918,23.56,74282.5,19.85,7.15,7.59,0,*40
1500559206.63,11919,23.56,74282.0,19.87,7.47,7.95,0,*44
1500559207.86,11920,23.56,74284.3,19.85,7.15,7.55,0,*47
1500559209.06,11921,23.56,74280.0,19.87,7.37,7.61,0,*43
1500559210.27,11922,23.56,74280.3,19.87,7.59,7.95,0,*43
1500559211.48,11923,23.56,74280.8,19.87,7.83,8.27,0,*43
1500559212.69,11924,23.56,74282.5,19.87,8.15,8.55,0,*41
1500559213.89,11925,23.56,74286.0,19.91,8.65,8.97,0,*4E
1500559215.1,11926,23.56,74282.8,19.91,8.87,9.01,0,*4F
1500559216.31,11927,23.56,74284.8,19.91,8.79,9.01,0,*4F
1500559217.49,11928,23.56,74284.5,19.95,8.69,8.83,0,*4E
1500559218.71,11929,23.56,74282.0,19.95,8.93,9.11,0,*40
1500559219.92,11930,23.56,74286.5,19.99,8.97,9.07,0,*47
1500559221.18,11931,23.56,74284.5,20.01,9.19,9.35,0,*4B
1500559222.42,11932,23.56,74286.8,20.03,9.19,9.19,0,*44
1500559223.65,11933,23.56,74282.5,20.05,9.47,9.39,0,*4A
1500559224.91,11934,23.56,74282.8,20.05,9.89,9.81,0,*4C
1500559226.14,11935,23.56,74280.3,20.09,10.13,10.05,0,*4E
1500559227.34,11936,23.56,74282.0,20.13,10.55,10.43,0,*46
1500559228.61,11937,23.56,74280.8,20.13,10.65,10.57,0,*41
1500559229.87,11938,23.56,74282.5,20.21,10.83,10.79,0,*4B
1500559231.14,11939,23.56,74280.8,20.25,11.33,11.03,0,*48
1500559232.37,11940,23.56,74282.5,20.27,11.55,11.23,0,*46
1500559233.62,11941,23.56,74282.8,20.31,11.55,11.23,0,*40
1500559234.87,11942,23.56,74280.8,20.35,11.37,10.89,0,*42
1500559236.12,11943,23.56,74280.8,20.39,11.21,10.71,0,*4F
1500559237.39,11944,23.56,74284.5,20.43,11.31,10.75,0,*40
1500559238.61,11945,23.56,74282.0,20.45,10.93,10.23,0,*4D
1500559239.81,11946,23.56,74282.8,20.49,10.61,9.71,0,*70
1500559241.01,11947,23.56,74282.8,20.49,10.55,9.61,0,*77
1500559242.22,11948,23.56,74280.5,20.51,10.33,9.25,0,*71
1500559243.42,11949,23.56,74280.8,20.51,9.75,8.65,0,*4F
1500559244.6,11950,23.56,74280.0,20.53,9.33,8.09,0,*4D
1500559245.81,11951,23.56,74280.5,20.53,9.07,7.77,0,*4D
1500559247.02,11952,23.56,74280.3,20.53,9.15,7.79,0,*43
1500559248.24,11953,23.56,74280.3,20.55,9.29,7.83,0,*4E
1500559249.44,11954,23.56,74282.8,20.55,9.29,7.79,0,*4C
1500559250.62,11955,23.56,74282.5,20.57,9.75,8.15,0,*43
1500559251.8,11956,23.56,74282.5,20.57,9.95,8.27,0,*4F
1500559252.97,11957,23.56,74282.8,20.57,9.91,8.09,0,*46
1500559254.21,11958,23.56,74282.0,20.57,9.85,7.95,0,*46
1500559255.39,11959,23.56,74280.5,20.57,10.05,8.05,0,*71
1500559256.59,11960,23.56,74282.0,20.57,9.63,7.47,0,*4A
1500559257.79,11961,23.56,74286.8,20.59,9.63,7.55,0,*46
1500559259.04,11962,23.56,74282.3,20.59,9.77,7.65,0,*43
1500559260.25,11963,23.56,74280.5,20.59,9.67,7.51,0,*44
1500559261.51,11964,23.56,74282.5,20.61,8.89,6.51,0,*48
1500559262.74,11965,23.56,74282.3,20.61,8.23,5.73,0,*4A
1500559263.92,11966,23.56,74280.3,20.57,8.19,5.59,0,*4D
1500559265.16,11967,23.56,74282.5,20.59,7.91,5.33,0,*41
1500559266.39,11968,23.56,74282.0,20.57,8.55,5.81,0,*4E
1500559267.56,11969,23.56,74280.8,20.57,8.61,5.99,0,*41
1500559268.76,11970,23.56,74280.0,20.57,8.75,6.11,0,*4F
1500559269.97,11971,23.56,74280.8,20.57,8.47,5.67,0,*4D
1500559271.18,11972,23.56,74280.5,20.55,8.45,5.63,0,*4A
1500559272.38,11973,23.56,74284.3,20.55,8.83,6.11,0,*47
1500559273.61,11974,23.56,74282.5,20.55,8.47,5.49,0,*46
1500559274.85,11975,23.56,74282.5,20.55,7.91,5.15,0,*4A
1500559276.05,11976,23.56,74280.8,20.53,8.47,5.63,0,*4A
1500559277.26,11977,23.56,74284.3,20.53,8.47,5.59,0,*42
1500559278.49,11978,23.56,74286.3,20.53,8.59,5.73,0,*4A
1500559279.74,11979,23.56,74284.3,20.51,7.77,4.67,0,*4E
1500559281.0,11980,23.56,74284.3,20.51,7.69,4.75,0,*44
1500559282.21,11981,23.56,74286.8,20.51,7.51,4.33,0,*4C
1500559283.39,11982,23.56,74284.3,20.49,6.97,3.81,0,*43
1500559284.6,11983,23.56,74282.5,20.47,7.59,4.45,0,*40
1500559285.78,11984,23.56,74280.8,20.45,8.05,4.85,0,*4F
1500559287.04,11985,23.56,74284.8,20.47,7.83,4.71,0,*46
1500559288.31,11986,23.56,74282.5,20.47,7.95,4.75,0,*46
1500559289.54,11987,23.56,74284.0,20.47,7.79,4.67,0,*46
1500559290.75,11988,23.56,74282.3,20.45,8.13,4.81,0,*40
1500559291.96,11989,23.56,74282.8,20.45,8.01,4.75,0,*49
1500559293.19,11990,23.56,74280.8,20.43,7.69,4.45,0,*45
1500559294.39,11991,23.56,74286.3,20.45,7.61,4.23,0,*4A
1500559295.62,11992,23.56,74280.8,20.43,7.51,3.97,0,*44
1500559296.82,11993,23.56,74282.8,20.43,6.83,3.25,0,*42
1500559298.05,11994,23.56,74282.5,20.43,6.61,2.99,0,*4F
1500559299.31,11995,23.56,74284.8,20.39,6.47,2.85,0,*4A
1500559300.55,11996,23.56,74286.8,20.37,6.73,3.07,0,*4B
1500559301.78,11997,23.56,74282.3,20.35,7.27,3.63,0,*4A
1500559303.01,11998,23.63,74286.3,20.35,7.73,4.19,0,*4E
1500559304.22,11999,23.56,74282.0,20.35,8.01,4.27,0,*48
1500559305.45,12000,23.56,74284.3,20.35,7.61,3.85,0,*44
1500559306.71,12001,23.56,74280.8,20.35,6.91,3.11,0,*46
1500559307.89,12002,23.56,74282.8,20.33,7.09,3.25,0,*44
1500559309.12,12003,23.56,74284.0,20.33,7.19,3.19,0,*4B
1500559310.33,12004,23.56,74282.8,20.33,7.09,3.07,0,*42
1500559311.59,12005,23.56,74286.8,20.31,7.19,3.19,0,*4F
1500559312.82,12006,23.56,74286.0,20.29,7.27,3.23,0,*41
1500559314.03,12007,23.56,74282.8,20.29,7.05,3.03,0,*42
1500559315.27,12008,23.56,74284.5,20.29,7.19,3.15,0,*47
1500559316.47,12009,23.63,74284.8,20.29,6.47,2.31,0,*4B
1500559317.73,12010,23.56,74280.0,20.25,6.65,2.43,0,*4A
1500559318.92,12011,23.63,74284.8,20.27,6.83,2.61,0,*41
1500559320.12,12012,23.63,74286.5,20.27,6.57,2.35,0,*4A
1500559321.33,12013,23.56,74278.3,20.25,6.97,2.65,0,*40
1500559322.59,12014,23.63,74286.8,20.25,6.43,2.09,0,*44
1500559323.78,12015,23.56,74282.0,20.23,6.97,2.65,0,*40
1500559324.97,12016,23.56,74282.5,20.23,6.97,2.65,0,*43
1500559326.19,12017,23.56,74284.3,20.21,6.93,2.55,0,*47
1500559327.41,12018,23.56,74284.3,20.23,7.29,2.89,0,*4B
1500559328.62,12019,23.56,74282.5,20.23,7.77,3.25,0,*46
1500559329.87,12020,23.56,74282.3,20.21,7.77,3.11,0,*49
1500559331.1,12021,23.56,74284.3,20.23,7.69,3.15,0,*41
1500559332.31,12022,23.56,74282.0,20.23,8.01,3.49,0,*4A
1500559333.5,12023,23.56,74284.8,20.25,8.69,4.19,0,*41
1500559334.68,12024,23.56,74280.8,20.29,8.05,3.25,0,*48
1500559335.91,12025,23.63,74284.3,20.29,7.83,3.03,0,*4C
1500559337.12,12026,23.56,74282.5,20.31,7.79,2.99,0,*41
1500559338.31,12027,23.56,74282.0,20.29,8.15,3.25,0,*4A
1500559339.52,12028,23.56,74280.3,20.33,8.87,3.97,0,*4C
1500559340.76,12029,23.56,74284.0,20.35,10.03,5.05,0,*73
1500559341.98,12030,23.56,74284.3,20.39,10.09,5.19,0,*70
1500559343.22,12031,23.56,74284.5,20.45,9.85,4.75,0,*4D
1500559344.43,12032,23.56,74282.0,20.45,10.03,4.75,0,*78
1500559345.65,12033,23.56,74284.0,20.49,10.31,5.11,0,*77
1500559346.89,12034,23.56,74282.0,20.53,11.23,5.85,0,*74
1500559348.13,12035,23.56,74284.0,20.59,11.61,6.25,0,*70
1500559349.35,12036,23.56,74282.3,20.63,12.13,6.69,0,*74
1500559350.57,12037,23.56,74280.3,20.71,11.85,6.35,0,*73
1500559351.78,12038,23.56,74280.5,20.75,11.95,6.33,0,*7F
1500559353.02,12039,23.63,74284.5,20.79,12.13,6.35,0,*79
1500559354.23,12040,23.56,74280.8,20.85,11.99,5.99,0,*70
1500559355.44,12041,23.56,74282.0,20.93,11.75,5.59,0,*78
1500559356.68,12042,23.56,74282.3,20.97,11.57,5.51,0,*77
1500559357.9,12043,23.63,74282.5,21.01,11.85,5.51,0,*77
1500559359.07,12044,23.56,74280.0,21.05,11.93,5.41,0,*72
1500559360.27,12045,23.56,74282.8,21.13,12.51,6.13,0,*7D
1500559361.5,12046,23.56,74280.5,21.19,12.67,6.07,0,*74
1500559362.74,12047,23.56,74280.5,21.23,12.83,6.21,0,*72
1500559363.98,12048,23.63,74286.5,21.29,12.71,5.85,0,*77
1500559365.24,12049,23.63,74284.8,21.35,12.67,5.77,0,*71
1500559366.46,12050,23.56,74282.8,21.41,12.95,5.89,0,*76
1500559367.68,12051,23.56,74282.8,21.47,12.27,4.89,0,*79
1500559368.9,12052,23.56,74280.5,21.49,12.23,4.75,0,*73
1500559370.14,12053,23.63,74284.3,21.53,12.53,4.93,0,*76
1500559371.39,12054,23.63,74286.0,21.61,12.63,5.11,0,*78
1500559372.64,12055,23.56,74282.8,21.67,12.67,5.01,0,*7A
1500559373.88,12056,23.56,74282.8,21.69,12.37,4.53,0,*74
1500559375.09,12057,23.63,74282.0,21.75,12.17,4.19,0,*74
1500559376.31,12058,23.63,74284.5,21.79,12.39,4.31,0,*71
1500559377.5,12059,23.63,74282.8,21.83,10.93,2.61,0,*74
1500559378.78,12060,23.56,74280.5,21.85,11.33,2.89,0,*75
1500559380.02,12061,23.63,74286.8,21.91,11.85,3.37,0,*78
1500559381.26,12062,23.63,74286.3,21.95,12.03,3.45,0,*77
1500559382.48,12063,23.63,74286.8,21.97,11.47,2.77,0,*77
1500559383.7,12064,23.63,74286.3,22.03,12.43,3.59,0,*74
1500559384.92,12065,23.56,74284.0,22.07,12.61,3.81,0,*74
1500559386.16,12066,23.63,74286.3,22.11,12.43,3.49,0,*74
1500559387.4,12067,23.56,74282.3,22.15,11.93,2.73,0,*77
1500559388.64,12068,23.63,74282.3,22.19,11.65,2.43,0,*7E
1500559389.9,12069,23.63,74286.0,22.21,11.03,1.55,0,*70
1500559391.13,12070,23.63,74284.5,22.29,11.99,2.59,0,*7C
1500559392.36,12071,23.63,74286.5,22.29,11.89,2.39,0,*7A
1500559393.6,12072,23.63,74282.8,22.33,11.65,2.01,0,*7B
1500559394.81,12073,23.63,74282.3,22.39,11.75,1.75,0,*71
1500559396.03,12074,23.63,74284.5,22.41,10.55,0.63,0,*4C
1500559397.29,12075,23.56,74282.8,22.41,10.61,0.63,0,*4A
1500559398.53,12076,23.56,74282.0,22.47,11.45,1.47,0,*7F
1500559399.76,12077,23.63,74284.5,22.51,11.57,1.59,0,*75
1500559400.98,12078,23.63,74284.5,22.57,11.55,1.41,0,*77
1500559402.19,12079,23.63,74282.8,22.57,10.13,-0.29,0,*67
1500559403.4,12080,23.56,74282.0,22.59,9.47,-1.05,0,*69
1500559404.61,12081,23.63,74286.5,22.61,9.71,-0.69,0,*5D
1500559405.82,12082,23.56,74282.3,22.61,10.47,-0.03,0,*5F
1500559407.08,12083,23.63,74284.0,22.65,10.75,0.37,0,*41
1500559408.3,12084,23.63,74286.3,22.71,11.45,1.05,0,*71
1500559409.55,12085,23.63,74284.0,22.73,10.83,0.33,0,*4D
1500559410.75,12086,23.63,74286.8,22.77,9.99,-0.61,0,*53
1500559411.98,12087,23.63,74284.0,22.79,9.53,-1.13,0,*6E
1500559413.22,12088,23.63,74284.0,22.81,10.23,-0.33,0,*6A
1500559414.45,12089,23.56,74282.8,22.85,10.95,0.41,0,*4A
1500559415.66,12090,23.63,74286.5,22.89,11.03,0.43,0,*42
1500559416.88,12091,23.63,74284.0,22.93,10.19,-0.49,0,*65
1500559418.08,12092,23.63,74284.3,22.95,10.03,-0.61,0,*61
1500559419.29,12093,23.63,74284.0,22.99,10.13,-0.53,0,*6C
1500559420.51,12094,23.63,74284.3,23.03,10.13,-0.49,0,*62
1500559421.71,12095,23.63,74286.8,23.03,10.03,-0.61,0,*68
1500559422.96,12096,23.56,74282.0,23.07,9.81,-0.85,0,*57
1500559424.14,12097,23.63,74284.3,23.09,9.95,-0.65,0,*53
1500559425.34,12098,23.63,74286.3,23.15,9.95,-0.49,0,*5F
1500559426.57,12099,23.63,74284.3,23.17,10.13,-0.37,0,*63
1500559427.81,12100,23.63,74286.3,23.19,9.49,-1.13,0,*6C
1500559429.02,12101,23.56,74280.8,23.23,8.33,-2.27,0,*6C
1500559430.23,12102,23.63,74286.5,23.23,7.95,-2.87,0,*66
1500559431.49,12103,23.63,74284.3,23.25,7.11,-3.59,0,*6F
1500559432.7,12104,23.63,74282.0,23.23,7.61,-3.15,0,*61
1500559433.97,12105,23.63,74280.3,23.25,6.43,-4.73,0,*60
1500559435.19,12106,23.63,74284.5,23.23,4.97,-6.51,0,*6C
1500559436.45,12107,23.63,74284.3,23.21,4.01,-7.57,0,*67
1500559437.69,12108,23.63,74282.5,23.15,4.41,-6.97,0,*66
1500559438.94,12109,23.63,74284.3,23.11,3.45,-7.99,0,*6F
1500559440.15,12110,23.63,74282.3,23.09,3.81,-7.57,0,*64
1500559441.34,12111,23.63,74284.3,23.05,3.59,-7.83,0,*65
1500559442.58,12112,23.63,74284.3,23.01,3.67,-7.69,0,*6B
1500559443.79,12113,23.63,74282.8,23.01,3.89,-7.31,0,*67
1500559445.03,12114,23.56,74282.0,22.95,3.59,-7.65,0,*60
1500559446.27,12115,23.63,74282.8,22.93,3.71,-7.35,0,*68
1500559447.53,12116,23.63,74282.3,22.87,3.49,-7.57,0,*61
1500559448.74,12117,23.63,74284.5,22.87,2.91,-8.21,0,*6A
1500559449.95,12118,23.63,74282.5,22.83,2.39,-8.67,0,*61
1500559451.18,12119,23.63,74280.3,22.79,2.05,-9.15,0,*6E
1500559452.41,12120,23.63,74284.0,22.75,1.59,-9.61,0,*61
1500559453.62,12121,23.63,74284.3,22.71,2.01,-9.19,0,*65
1500559454.88,12122,23.63,74282.3,22.65,1.59,-9.37,0,*61
1500559456.12,12123,23.63,74284.0,22.61,2.47,-8.25,0,*6A
1500559457.35,12124,23.63,74282.3,22.61,2.25,-8.41,0,*6B
1500559458.56,12125,23.63,74280.0,22.55,1.47,-9.31,0,*6C
1500559459.78,12126,23.63,74282.5,22.53,1.05,-9.79,0,*63
1500559461.02,12127,23.63,74282.8,22.49,1.37,-9.27,0,*63
1500559462.24,12128,23.63,74282.5,22.43,1.21,-9.23,0,*65
1500559463.45,12129,23.63,74280.3,22.39,1.97,-8.55,0,*64
1500559464.63,12130,23.63,74284.8,22.39,1.75,-8.67,0,*61
1500559465.84,12131,23.63,74282.3,22.35,0.97,-9.45,0,*50
1500559467.06,12132,23.63,74282.3,22.31,1.37,-8.97,0,*62
1500559468.3,12133,23.63,74280.5,22.31,1.13,-9.11,0,*6A
1500559469.54,12134,23.63,74282.8,22.27,1.33,-8.81,0,*60
1500559470.78,12135,23.63,74282.0,22.21,1.63,-8.45,0,*6A
1500559472.02,12136,23.63,74282.3,22.21,1.55,-8.45,0,*6C
1500559473.24,12137,23.63,74280.3,22.19,0.59,-9.31,0,*59
1500559474.45,12138,23.63,74282.8,22.17,1.25,-8.59,0,*6D
1500559475.65,12139,23.63,74280.5,22.13,1.01,-8.81,0,*6B
1500559476.86,12140,23.63,74282.0,22.11,0.97,-8.85,0,*5D
1500559478.08,12141,23.63,74282.8,22.09,1.33,-8.29,0,*6C
1500559479.35,12142,23.63,74284.0,22.07,1.17,-8.51,0,*68
1500559480.56,12143,23.63,74282.8,22.05,1.13,-8.41,0,*6E
1500559481.78,12144,23.63,74282.3,22.03,1.01,-8.41,0,*6C
1500559483.04,12145,23.63,74284.0,21.99,1.51,-7.69,0,*6D
1500559484.27,12146,23.63,74284.5,21.97,1.67,-7.57,0,*68
1500559485.54,12147,23.63,74282.0,21.95,1.43,-7.73,0,*6B
1500559486.76,12148,23.63,74284.0,21.93,1.97,-7.19,0,*67
1500559488.02,12149,23.63,74282.3,21.91,2.13,-6.93,0,*68
1500559489.25,12150,23.63,74282.8,21.91,2.21,-6.69,0,*64
1500559490.48,12151,23.63,74280.8,21.89,1.21,-7.87,0,*6E
1500559491.67,12152,23.63,74280.8,21.87,0.37,-8.63,0,*50
1500559492.89,12153,23.63,74282.8,21.87,1.01,-7.91,0,*67
1500559494.05,12154,23.63,74280.3,21.83,0.43,-8.55,0,*54
1500559495.28,12155,23.63,74282.3,21.81,0.25,-8.71,0,*51
1500559496.48,12156,23.63,74282.5,21.79,0.21,-8.75,0,*55
1500559497.68,12157,23.63,74282.3,21.79,0.13,-8.63,0,*52
1500559498.91,12158,23.63,74280.3,21.73,-0.57,-9.49,0,*73
1500559500.17,12159,23.63,74284.0,21.69,0.13,-8.51,0,*5C
1500559501.4,12160,23.63,74278.8,21.69,0.37,-8.37,0,*50
1500559502.59,12161,23.63,74284.5,21.65,-0.07,-8.67,0,*46
1500559503.82,12162,23.63,74284.8,21.65,0.33,-8.21,0,*5D
1500559505.08,12163,23.63,74280.3,21.61,0.79,-7.57,0,*58
1500559506.31,12164,23.63,74280.8,21.61,0.17,-8.33,0,*5A
1500559507.53,12165,23.63,74286.5,21.57,-0.53,-9.01,0,*73
1500559508.75,12166,23.63,74282.8,21.57,-0.41,-8.93,0,*79
1500559509.97,12167,23.63,74280.5,21.51,-0.45,-8.89,0,*71
1500559511.19,12168,23.63,74282.3,21.47,-0.61,-8.89,0,*7F
1500559512.41,12169,23.63,74280.5,21.47,-0.77,-9.05,0,*7C
1500559513.63,12170,23.63,74278.8,21.43,-0.81,-8.97,0,*73
1500559514.84,12171,23.63,74280.3,21.43,-0.33,-8.33,0,*75
1500559516.03,12172,23.63,74284.5,21.41,-0.11,-8.21,0,*77
1500559517.28,12173,23.63,74284.0,21.39,-0.27,-8.25,0,*78
1500559518.49,12174,23.63,74284.0,21.37,-0.03,-7.73,0,*4B
1500559519.73,12175,23.63,74280.5,21.35,-0.03,-7.69,0,*43
1500559520.97,12176,23.63,74282.3,21.35,0.05,-7.61,0,*63
1500559522.2,12177,23.63,74282.5,21.35,-0.15,-7.69,0,*76
1500559523.42,12178,23.63,74282.8,21.35,-0.57,-8.17,0,*79
1500559524.65,12179,23.63,74282.0,21.31,-0.81,-8.21,0,*72
1500559525.86,12180,23.63,74286.3,21.29,-0.49,-7.95,0,*79
1500559527.1,12181,23.63,74282.0,21.27,-0.69,-8.03,0,*74
1500559528.35,12182,23.63,74284.3,21.27,-0.19,-7.43,0,*7B
1500559529.56,12183,23.63,74280.8,21.27,-0.15,-7.19,0,*79
1500559530.79,12184,23.63,74284.5,21.23,0.25,-6.73,0,*59
1500559532.01,12185,23.63,74284.0,21.23,0.41,-6.43,0,*59
1500559533.21,12186,23.63,74280.3,21.23,0.01,-6.81,0,*60
1500559534.42,12187,23.63,74286.3,21.23,-0.19,-6.85,0,*71
1500559535.64,12188,23.63,74282.5,21.23,-0.03,-6.63,0,*4D
1500559536.85,12189,23.63,74284.0,21.21,-0.11,-6.63,0,*7D
1500559538.06,12190,23.63,74282.3,21.23,-0.61,-6.81,0,*7C
1500559539.29,12191,23.63,74282.5,21.23,-0.73,-7.01,0,*77
1500559540.53,12192,23.63,74282.5,21.23,-0.81,-7.01,0,*79
1500559541.74,12193,23.63,74284.8,21.23,-0.61,-6.81,0,*7F
1500559542.97,12194,23.63,74286.3,21.21,-0.85,-6.97,0,*77
1500559544.15,12195,23.63,74284.5,21.21,-1.21,-7.19,0,*4E
1500559545.39,12196,23.63,74284.0,21.21,-1.87,-7.91,0,*41
1500559546.6,12197,23.63,74286.5,21.19,-3.03,-8.93,0,*48
1500559547.81,12198,23.63,74280.3,21.17,-2.43,-8.11,0,*46
1500559549.04,12199,23.63,74282.3,21.15,-1.79,-7.35,0,*46
1500559550.27,12200,23.63,74282.8,21.15,-2.15,-7.65,0,*49
1500559551.45,12201,23.63,74282.3,21.13,-2.19,-7.49,0,*4C
1500559552.66,12202,23.63,74286.0,21.13,-1.95,-7.23,0,*44
1500559553.87,12203,23.63,74284.8,21.11,-1.63,-6.89,0,*4F
1500559555.08,12204,23.63,74286.5,21.11,-1.59,-6.51,0,*44
1500559556.27,12205,23.63,74280.8,21.13,-1.33,-6.13,0,*4D
1500559557.48,12206,23.63,74284.8,21.11,-0.73,-5.39,0,*72
1500559558.72,12207,23.63,74280.5,21.11,-0.37,-4.69,0,*77
1500559559.92,12208,23.63,74282.8,21.13,-0.97,-5.35,0,*78
1500559561.11,12209,23.63,74282.3,21.13,-0.45,-4.57,0,*73
1500559562.34,12210,23.63,74284.5,21.15,-0.11,-4.01,0,*7F
1500559563.53,12211,23.63,74280.5,21.17,0.17,-3.75,0,*53
1500559564.72,12212,23.63,74280.8,21.19,0.01,-3.87,0,*64
1500559565.95,12213,23.63,74284.8,21.19,-0.23,-3.91,0,*7F
1500559567.13,12214,23.63,74286.0,21.21,-0.37,-4.13,0,*7B
1500559568.31,12215,23.63,74284.0,21.21,-0.81,-4.49,0,*78
1500559569.52,12216,23.63,74282.8,21.21,-0.97,-4.57,0,*73
1500559570.71,12217,23.63,74286.3,21.25,-0.69,-4.33,0,*75
1500559571.96,12218,23.63,74282.3,21.23,-1.55,-5.23,0,*42
1500559573.17,12219,23.63,74286.8,21.21,-1.83,-5.43,0,*4C
1500559574.41,12220,23.63,74284.5,21.23,-1.83,-5.35,0,*45
1500559575.64,12221,23.63,74280.0,21.23,-1.91,-5.39,0,*4B
1500559576.88,12222,23.63,74284.0,21.23,-1.91,-5.35,0,*44
1500559578.09,12223,23.63,74286.3,21.21,-1.75,-5.07,0,*4C
1500559579.32,12224,23.63,74282.0,21.21,-1.95,-5.31,0,*40
1500559580.57,12225,23.63,74280.0,21.21,-2.11,-5.31,0,*4E
1500559581.81,12226,23.63,74280.3,21.17,-1.83,-5.15,0,*46
1500559583.05,12227,23.63,74284.5,21.19,-1.71,-4.77,0,*41
1500559584.31,12228,23.63,74280.5,21.19,-1.83,-4.77,0,*43
1500559585.55,12229,23.63,74282.0,21.17,-2.07,-5.23,0,*43
1500559586.74,12230,23.63,74280.0,21.17,-1.75,-4.61,0,*4A
1500559587.96,12231,23.63,74284.3,21.17,-1.39,-4.21,0,*47
1500559589.2,12232,23.63,74280.5,21.19,-1.35,-4.25,0,*42
1500559590.41,12233,23.63,74286.8,21.19,-1.33,-4.25,0,*45
1500559591.6,12234,23.63,74282.0,21.17,-1.67,-4.61,0,*4D
1500559592.86,12235,23.63,74284.8,21.19,-1.87,-4.77,0,*4B
1500559594.07,12236,23.63,74282.3,21.17,-2.15,-5.19,0,*47
1500559595.29,12237,23.63,74282.3,21.17,-2.27,-5.11,0,*4F
1500559596.52,12238,23.63,74284.5,21.15,-2.43,-5.27,0,*45
1500559597.74,12239,23.63,74280.3,21.13,-2.47,-5.35,0,*45
1500559598.97,12240,23.63,74280.5,21.11,-2.59,-5.39,0,*4A
1500559600.21,12241,23.63,74280.0,21.07,-2.27,-5.11,0,*4F
1500559601.47,12242,23.63,74280.5,21.07,-2.51,-5.23,0,*4C
1500559602.71,12243,23.63,74284.8,21.07,-1.91,-4.53,0,*44
1500559603.97,12244,23.63,74282.8,21.07,-2.03,-4.69,0,*42
1500559605.18,12245,23.63,74282.8,21.07,-1.79,-4.45,0,*43
1500559606.41,12246,23.63,74282.5,21.03,-2.27,-4.77,0,*4D
1500559607.64,12247,23.63,74282.8,21.03,-1.91,-4.33,0,*42
1500559608.88,12248,23.63,74282.8,21.03,-1.95,-4.49,0,*44
1500559610.11,12249,23.63,74280.3,21.03,-1.91,-4.45,0,*4D
1500559611.32,12250,23.63,74282.0,21.01,-3.83,-6.23,0,*44
1500559612.57,12251,23.63,74280.0,20.99,-2.87,-5.23,0,*43
1500559613.76,12252,23.63,74282.5,20.97,-2.95,-5.39,0,*46
1500559614.98,12253,23.63,74284.0,20.97,-2.03,-4.37,0,*47
1500559616.19,12254,23.63,74280.5,20.93,-2.87,-5.19,0,*45
1500559617.41,12255,23.63,74282.3,20.91,-2.99,-5.23,0,*40
1500559618.64,12256,23.63,74282.8,20.93,-1.47,-3.71,0,*40
1500559619.83,12257,23.63,74280.5,20.91,-2.23,-4.45,0,*42
1500559621.03,12258,23.63,74282.5,20.91,-1.91,-4.17,0,*40
1500559622.27,12259,23.63,74282.0,20.85,-2.91,-5.23,0,*41
1500559623.51,12260,23.63,74280.8,20.85,-2.83,-5.15,0,*4D
1500559624.72,12261,23.63,74282.5,20.85,-1.79,-4.17,0,*49
1500559625.95,12262,23.63,74280.8,20.83,-1.35,-3.59,0,*49
1500559627.14,12263,23.63,74280.5,20.83,-1.55,-3.87,0,*4D
1500559628.4,12264,23.63,74280.0,20.81,-2.55,-4.85,0,*4E
1500559629.67,12265,23.63,74284.8,20.81,-2.71,-5.07,0,*42
1500559630.88,12266,23.69,74284.0,20.79,-1.95,-4.17,0,*4F
1500559632.12,12267,23.63,74284.0,20.77,-1.21,-3.59,0,*42
1500559633.33,12268,23.63,74282.0,20.75,-0.85,-3.31,0,*7E
1500559634.57,12269,23.63,74284.8,20.73,-1.47,-3.83,0,*4F
1500559635.82,12270,23.63,74282.8,20.73,-0.97,-3.51,0,*74
1500559637.08,12271,23.63,74280.8,20.73,-0.97,-3.51,0,*75
1500559638.34,12272,23.63,74280.5,20.73,-1.05,-3.59,0,*44
1500559639.55,12273,23.63,74282.8,20.73,-0.73,-3.19,0,*71
1500559640.81,12274,23.69,74286.3,20.69,-1.01,-3.67,0,*40
1500559642.03,12275,23.63,74282.5,20.67,-1.87,-4.57,0,*45
1500559643.26,12276,23.63,74280.8,20.67,-0.93,-3.59,0,*7B
1500559644.44,12277,23.63,74280.3,20.67,-0.61,-3.35,0,*7D
1500559645.68,12278,23.69,74284.8,20.61,-0.27,-3.03,0,*73
1500559646.88,12279,23.63,74282.0,20.61,-0.33,-3.11,0,*74
1500559648.14,12280,23.63,74280.3,20.61,-0.85,-3.67,0,*7E
1500559649.36,12281,23.63,74282.5,20.59,-0.27,-3.23,0,*7C
1500559650.59,12282,23.63,74280.5,20.59,-0.49,-3.59,0,*7A
1500559651.81,12283,23.63,74278.8,20.59,-0.61,-3.67,0,*7C
1500559653.02,12284,23.63,74280.8,20.55,-0.69,-3.83,0,*75
1500559654.26,12285,23.63,74282.8,20.55,-0.23,-3.35,0,*77
1500559655.45,12286,23.63,74280.5,20.55,0.01,-3.19,0,*67
1500559656.65,12287,23.63,74280.0,20.53,0.25,-3.03,0,*5D
1500559657.85,12288,23.63,74280.0,20.53,-0.37,-3.63,0,*7A
1500559659.06,12289,23.63,74278.8,20.51,-0.77,-3.91,0,*70
1500559660.28,12290,23.63,74282.5,20.51,-0.49,-3.71,0,*7B
1500559661.48,12291,23.69,74284.0,20.49,-0.93,-4.33,0,*75
1500559662.73,12292,23.63,74282.5,20.47,-1.33,-4.69,0,*4C
1500559663.95,12293,23.63,74280.0,20.45,-0.97,-4.37,0,*7B
1500559665.16,12294,23.63,74282.5,20.39,-0.77,-4.09,0,*74
1500559666.39,12295,23.63,74282.0,20.37,-0.27,-3.63,0,*75
1500559667.58,12296,23.63,74282.5,20.37,-0.73,-4.17,0,*73
1500559668.76,12297,23.63,74282.5,20.37,-0.29,-3.79,0,*72
1500559669.99,12298,23.63,74282.5,20.35,-0.07,-3.43,0,*4A
1500559671.22,12299,23.63,74280.0,20.33,0.63,-2.75,0,*56
1500559672.42,12300,23.69,74280.0,20.33,0.17,-3.35,0,*51
1500559673.63,12301,23.69,74284.3,20.33,0.59,-2.99,0,*5D
1500559674.86,12302,23.69,74284.0,20.31,0.63,-2.83,0,*5E
1500559676.1,12303,23.69,74280.3,20.29,0.83,-2.67,0,*52
1500559677.32,12304,23.63,74280.3,20.33,1.25,-2.31,0,*60
1500559678.54,12305,23.69,74282.8,20.29,1.29,-2.27,0,*61
1500559679.8,12306,23.63,74282.8,20.31,0.87,-2.71,0,*5D
1500559681.01,12307,23.63,74282.5,20.29,0.75,-3.11,0,*5F
1500559682.21,12308,23.63,74280.5,20.29,0.71,-3.03,0,*57
1500559683.42,12309,23.69,74282.3,20.29,0.97,-2.75,0,*5E
1500559684.64,12310,23.63,74282.3,20.27,1.25,-2.39,0,*68
1500559685.87,12311,23.63,74282.0,20.25,1.83,-1.87,0,*61
1500559687.1,12312,23.69,74280.5,20.25,1.75,-1.95,0,*68
1500559688.34,12313,23.63,74280.5,20.27,2.25,-1.43,0,*66
1500559689.59,12314,23.69,74280.5,20.25,2.05,-1.95,0,*6A
1500559690.85,12315,23.69,74282.0,20.25,2.09,-1.83,0,*60
1500559692.08,12316,23.63,74276.5,20.25,2.21,-1.75,0,*60
1500559693.27,12317,23.69,74280.5,20.23,2.35,-1.71,0,*66
1500559694.48,12318,23.69,74280.3,20.23,2.47,-1.55,0,*6A
1500559695.72,12319,23.63,74282.5,20.23,2.59,-1.47,0,*67
1500559696.97,12320,23.69,74282.3,20.21,2.21,-1.87,0,*6C
1500559698.2,12321,23.69,74284.3,20.21,2.89,-1.29,0,*6B
1500559699.44,12322,23.63,74282.0,20.23,2.77,-1.43,0,*67
1500559700.64,12323,23.63,74280.3,20.23,2.09,-2.43,0,*6C
1500559701.88,12324,23.63,74280.5,20.21,1.29,-3.23,0,*6F
1500559703.11,12325,23.63,74280.3,20.21,2.21,-2.23,0,*64
1500559704.35,12326,23.63,74282.0,20.17,2.61,-1.91,0,*6C
1500559705.56,12327,23.69,74282.5,20.15,2.39,-2.27,0,*6C
1500559706.75,12328,23.69,74280.5,20.15,2.27,-2.43,0,*6E
1500559707.95,12329,23.63,74282.3,20.15,1.75,-3.07,0,*6A
1500559709.18,12330,23.63,74282.3,20.13,1.71,-3.19,0,*6F
1500559710.38,12331,23.69,74282.3,20.11,0.83,-4.17,0,*59
1500559711.6,12332,23.69,74280.5,20.07,1.13,-3.91,0,*6C
1500559712.84,12333,23.63,74278.5,20.07,1.55,-3.55,0,*67